TimeCST,TemperatureF,Dew PointF,Humidity,Sea Level PressureIn,VisibilityMPH,Wind Direction,Wind SpeedMPH,Gust SpeedMPH,PrecipitationIn,Events,Conditions,WindDirDegrees,DateUTC
12:53 AM,34.0,30.9,89,29.62,9.0,NW,11.5,-,N/A,,Overcast,320,2012-12-16 06:53:00
1:53 AM,33.8,30.2,87,29.58,2.5,NNW,10.4,-,N/A,,Overcast,330,2012-12-16 07:53:00
2:53 AM,32.0,30.0,92,29.66,2.5,NW,13.8,-,N/A,,Overcast,310,2012-12-16 08:53:00
3:53 AM,30.0,28.0,92,29.68,3.0,WNW,15.0,-,N/A,,Overcast,300,2012-12-16 09:53:00
4:53 AM,27.0,24.1,89,29.70,3.0,NW,15.0,-,N/A,,Overcast,310,2012-12-16 10:53:00
5:53 AM,24.1,21.9,91,29.72,3.0,NW,12.7,-,N/A,,Overcast,320,2012-12-16 11:53:00
6:53 AM,21.0,19.0,92,29.74,2.5,NW,13.8,-,N/A,,Overcast,310,2012-12-16 12:53:00
7:14 AM,19.4,17.6,93,29.69,3.0,WNW,15.0,-,N/A,,Overcast,300,2012-12-16 13:14:00
7:53 AM,19.0,17.1,92,29.76,2.5,NW,16.1,-,N/A,,Overcast,310,2012-12-16 13:53:00
8:53 AM,18.0,16.0,92,29.77,2.5,NW,13.8,-,N/A,,Overcast,320,2012-12-16 14:53:00
9:00 AM,19.4,15.8,86,29.70,3.0,NW,11.5,-,N/A,,Overcast,320,2012-12-16 15:00:00
9:53 AM,18.0,16.0,92,29.80,4.0,NW,12.7,-,N/A,,Overcast,320,2012-12-16 15:53:00
10:53 AM,18.0,14.0,84,29.81,5.0,NNW,12.7,-,N/A,,Overcast,330,2012-12-16 16:53:00
11:53 AM,18.0,14.0,84,29.81,5.0,NNW,8.1,-,N/A,,Overcast,330,2012-12-16 17:53:00
12:53 PM,18.0,14.0,84,29.81,7.0,NNW,13.8,-,N/A,,Overcast,330,2012-12-16 18:53:00
1:53 PM,19.0,15.1,85,29.80,10.0,NNW,6.9,-,N/A,,Overcast,330,2012-12-16 19:53:00
2:53 PM,19.9,15.1,81,29.80,10.0,NNW,10.4,-,N/A,,Overcast,340,2012-12-16 20:53:00
3:53 PM,19.9,16.0,85,29.81,10.0,NNW,4.6,-,N/A,,Overcast,330,2012-12-16 21:53:00
4:53 PM,19.9,16.0,85,29.83,10.0,NNW,9.2,-,N/A,,Overcast,330,2012-12-16 22:53:00
5:53 PM,21.0,16.0,81,29.84,10.0,NNW,8.1,-,N/A,,Overcast,330,2012-12-16 23:53:00
6:53 PM,21.0,16.0,81,29.86,10.0,North,9.2,-,N/A,,Overcast,350,2012-12-17 00:53:00
7:53 PM,21.0,17.1,85,29.86,10.0,North,8.1,-,N/A,,Overcast,360,2012-12-17 01:53:00
8:53 PM,21.0,17.1,85,29.86,10.0,North,9.2,-,N/A,,Overcast,360,2012-12-17 02:53:00
9:53 PM,21.9,18.0,85,29.87,10.0,NNW,4.6,-,N/A,,Overcast,330,2012-12-17 03:53:00
10:53 PM,21.9,18.0,85,29.87,10.0,Calm,Calm,-,N/A,,Overcast,0,2012-12-17 04:53:00
11:53 PM,21.9,18.0,85,29.87,10.0,NNW,3.5,-,N/A,,Overcast,340,2012-12-17 05:53:00